timestamp,wind_dir_avg,wind_spd_avg,wind_spd_max_dir,wind_spd_gust,battery_voltage,lat,long
2022-06-01 00:04:01+00:00,27.0,9.91,30.0,11.47,12.33,47.59359,-54.27349
2022-06-01 00:14:01+00:00,23.0,11.36,20.0,12.94,12.17,47.59359,-54.27349
2022-06-01 00:24:01+00:00,23.0,9.96,30.0,11.48,12.17,47.59359,-54.27349
2022-06-01 00:34:01+00:00,29.0,9.81,29.0,11.32,12.17,47.59359,-54.27349
2022-06-01 00:44:01+00:00,28.0,10.6,31.0,12.24,12.17,47.59359,-54.27349
2022-06-01 00:54:01+00:00,22.0,8.3,31.0,10.25,12.17,47.59359,-54.27349
2022-06-01 01:04:01+00:00,21.0,8.74,34.0,10.99,12.17,47.59359,-54.27349
2022-06-01 01:14:01+00:00,28.0,11.14,25.0,12.57,12.33,47.59359,-54.27349
2022-06-01 01:24:01+00:00,24.0,10.78,27.0,12.98,12.33,47.59359,-54.27349
2022-06-01 01:34:01+00:00,15.0,11.05,24.0,13.15,12.33,47.59359,-54.27349
2022-06-01 01:44:01+00:00,17.0,10.11,29.0,12.28,12.33,47.59359,-54.27349
2022-06-01 01:54:01+00:00,18.0,10.32,28.0,12.87,12.33,47.59359,-54.27349
2022-06-01 02:04:01+00:00,1.0,11.78,2.0,13.58,12.33,47.59359,-54.27349
2022-06-01 02:14:00+00:00,8.0,10.7,8.0,12.39,12.33,47.59359,-54.27349
2022-06-01 02:24:00+00:00,16.0,10.25,2.0,12.2,12.33,47.59359,-54.27349
2022-06-01 02:34:00+00:00,14.0,11.48,23.0,13.33,12.33,47.59359,-54.27349
2022-06-01 02:44:00+00:00,18.0,11.88,10.0,13.73,12.33,47.59359,-54.27349
2022-06-01 02:54:00+00:00,10.0,10.22,25.0,12.81,12.33,47.59359,-54.27349
2022-06-01 03:04:00+00:00,24.0,11.76,24.0,13.4,12.33,47.59359,-54.27349
2022-06-01 03:14:00+00:00,25.0,11.21,26.0,12.9,12.33,47.59359,-54.27349
2022-06-01 03:24:00+00:00,15.0,11.07,13.0,13.42,12.33,47.59359,-54.27349
2022-06-01 03:34:00+00:00,16.0,10.22,27.0,12.38,12.33,47.59359,-54.27349
2022-06-01 03:44:00+00:00,23.0,10.42,28.0,12.36,12.33,47.59359,-54.27349
2022-06-01 03:54:00+00:00,30.0,8.85,29.0,11.19,12.33,47.59359,-54.27349
2022-06-01 04:04:00+00:00,19.0,9.93,16.0,11.99,12.33,47.59359,-54.27349
2022-06-01 04:14:00+00:00,27.0,9.85,28.0,11.51,12.33,47.59359,-54.27349
2022-06-01 04:24:00+00:00,6.0,9.21,1.0,11.29,12.33,47.59359,-54.27349
2022-06-01 04:34:00+00:00,23.0,10.95,27.0,12.07,12.33,47.59359,-54.27349
2022-06-01 04:44:00+00:00,9.0,9.75,26.0,11.73,12.33,47.59359,-54.27349
2022-06-01 04:54:00+00:00,9.0,9.47,23.0,11.34,12.33,47.59359,-54.27349
2022-06-01 05:04:00+00:00,14.0,12.12,12.0,14.64,12.33,47.59359,-54.27349
2022-06-01 05:14:00+00:00,6.0,10.03,350.0,11.88,12.25,47.59359,-54.27349
2022-06-01 05:24:00+00:00,2.0,8.76,345.0,10.82,12.25,47.59359,-54.27349
2022-06-01 05:34:00+00:00,4.0,9.76,23.0,11.66,12.25,47.59359,-54.27349
2022-06-01 05:44:00+00:00,7.0,13.07,20.0,14.34,12.25,47.59359,-54.27349
2022-06-01 05:54:00+00:00,9.0,11.02,16.0,15.04,12.25,47.59359,-54.27349
2022-06-01 06:04:00+00:00,353.0,11.66,346.0,12.51,12.25,47.59359,-54.27349
2022-06-01 06:14:00+00:00,2.0,11.17,356.0,12.35,12.25,47.59359,-54.27349
2022-06-01 06:24:00+00:00,3.0,10.63,17.0,13.16,12.25,47.59359,-54.27349
2022-06-01 06:34:00+00:00,351.0,14.31,354.0,15.92,12.25,47.59359,-54.27349
2022-06-01 06:44:00+00:00,4.0,13.24,8.0,16.04,12.25,47.59359,-54.27349
2022-06-01 06:54:00+00:00,350.0,13.06,356.0,15.54,12.25,47.59359,-54.27349
2022-06-01 07:04:00+00:00,349.0,12.91,351.0,14.28,12.25,47.59359,-54.27349
2022-06-01 07:14:00+00:00,347.0,13.4,354.0,15.3,12.17,47.59359,-54.27349
2022-06-01 07:24:00+00:00,345.0,13.94,343.0,15.09,12.17,47.59359,-54.27349
2022-06-01 07:34:00+00:00,348.0,14.58,353.0,16.76,12.17,47.59359,-54.27349
2022-06-01 07:44:00+00:00,347.0,12.48,354.0,13.93,12.17,47.59359,-54.27349
2022-06-01 07:54:00+00:00,350.0,10.42,350.0,11.83,12.17,47.59359,-54.27349
2022-06-01 08:04:00+00:00,353.0,9.79,348.0,11.61,12.17,47.59359,-54.27349
2022-06-01 08:14:01+00:00,3.0,12.55,5.0,13.09,12.17,47.59359,-54.27349
2022-06-01 08:24:01+00:00,2.0,10.84,11.0,12.5,12.17,47.59359,-54.27349
2022-06-01 08:34:01+00:00,350.0,9.56,353.0,10.43,12.17,47.59359,-54.27349
2022-06-01 08:44:01+00:00,349.0,9.2,352.0,10.61,12.17,47.59359,-54.27349
2022-06-01 08:54:01+00:00,350.0,10.19,351.0,11.83,12.17,47.59359,-54.27349
2022-06-01 09:04:01+00:00,349.0,11.17,349.0,12.91,12.17,47.59359,-54.27349
2022-06-01 09:14:01+00:00,345.0,10.07,346.0,12.23,12.17,47.59359,-54.27349
2022-06-01 09:24:01+00:00,350.0,12.89,352.0,15.09,12.17,47.59359,-54.27349
2022-06-01 09:34:01+00:00,346.0,9.93,349.0,12.25,12.17,47.59359,-54.27349
2022-06-01 09:44:01+00:00,342.0,13.27,341.0,15.65,12.17,47.59359,-54.27349
2022-06-01 09:54:01+00:00,348.0,11.56,337.0,13.53,12.17,47.59359,-54.27349
2022-06-01 10:04:01+00:00,342.0,11.99,338.0,13.98,12.17,47.59359,-54.27349
2022-06-01 10:14:00+00:00,348.0,12.99,352.0,15.23,12.09,47.59359,-54.27349
2022-06-01 10:24:00+00:00,346.0,11.19,344.0,12.44,12.09,47.59359,-54.27349
2022-06-01 10:34:00+00:00,344.0,11.8,346.0,13.53,12.09,47.59359,-54.27349
2022-06-01 10:44:00+00:00,338.0,10.57,338.0,12.04,12.09,47.59359,-54.27349
2022-06-01 10:54:00+00:00,335.0,9.07,347.0,10.47,12.09,47.59359,-54.27349
2022-06-01 11:04:00+00:00,344.0,9.68,350.0,11.11,12.09,47.59359,-54.27349
2022-06-01 11:14:01+00:00,339.0,12.42,342.0,14.64,12.25,47.59359,-54.27349
2022-06-01 11:24:01+00:00,333.0,11.9,336.0,14.73,12.25,47.59359,-54.27349
2022-06-01 11:34:01+00:00,333.0,11.73,339.0,13.93,12.25,47.59359,-54.27349
2022-06-01 11:44:01+00:00,335.0,12.73,336.0,15.5,12.25,47.59359,-54.27349
2022-06-01 11:54:01+00:00,340.0,13.94,340.0,16.1,12.25,47.59359,-54.27349
2022-06-01 12:04:01+00:00,342.0,11.2,335.0,13.05,12.25,47.59359,-54.27349
2022-06-01 12:14:01+00:00,336.0,11.83,331.0,14.23,12.57,47.59359,-54.27349
2022-06-01 12:24:01+00:00,338.0,11.7,338.0,13.71,12.57,47.59359,-54.27349
2022-06-01 12:34:01+00:00,339.0,10.94,336.0,12.23,12.57,47.59359,-54.27349
2022-06-01 12:44:01+00:00,337.0,12.85,337.0,15.0,12.57,47.59359,-54.27349
2022-06-01 12:54:01+00:00,333.0,12.92,338.0,14.78,12.57,47.59359,-54.27349
2022-06-01 13:04:01+00:00,327.0,11.64,331.0,12.99,12.57,47.59359,-54.27349
2022-06-01 13:14:00+00:00,330.0,11.19,335.0,12.57,13.37,47.59359,-54.27349
2022-06-01 13:24:00+00:00,329.0,10.8,333.0,12.9,13.37,47.59359,-54.27349
2022-06-01 13:34:00+00:00,325.0,12.58,333.0,14.72,13.37,47.59359,-54.27349
2022-06-01 13:44:00+00:00,323.0,12.53,314.0,14.51,13.37,47.59359,-54.27349
2022-06-01 13:54:00+00:00,327.0,11.15,332.0,12.72,13.37,47.59359,-54.27349
2022-06-01 14:04:00+00:00,340.0,9.71,337.0,10.68,13.37,47.59359,-54.27349
2022-06-01 14:14:01+00:00,341.0,10.01,337.0,11.42,13.21,47.59359,-54.27349
2022-06-01 14:24:01+00:00,346.0,10.47,346.0,11.86,13.21,47.59359,-54.27349
2022-06-01 14:34:01+00:00,346.0,10.47,349.0,12.16,13.21,47.59359,-54.27349
2022-06-01 14:44:01+00:00,345.0,10.1,348.0,12.77,13.21,47.59359,-54.27349
2022-06-01 14:54:01+00:00,344.0,10.0,343.0,11.16,13.21,47.59359,-54.27349
2022-06-01 15:04:01+00:00,344.0,12.07,352.0,13.72,13.21,47.59359,-54.27349
2022-06-01 15:14:00+00:00,343.0,10.06,349.0,11.43,13.44,47.59359,-54.27349
2022-06-01 15:24:00+00:00,344.0,11.48,345.0,13.04,13.44,47.59359,-54.27349
2022-06-01 15:34:00+00:00,346.0,9.54,343.0,11.68,13.44,47.59359,-54.27349
2022-06-01 15:44:00+00:00,340.0,9.66,333.0,10.61,13.44,47.59359,-54.27349
2022-06-01 15:54:00+00:00,349.0,11.02,334.0,13.38,13.44,47.59359,-54.27349
2022-06-01 16:04:00+00:00,6.0,9.06,13.0,11.8,13.44,47.59359,-54.27349
2022-06-01 16:14:01+00:00,8.0,10.7,24.0,13.09,13.6,47.59359,-54.27349
2022-06-01 16:24:01+00:00,2.0,11.01,11.0,12.68,13.6,47.59359,-54.27349
2022-06-01 16:34:01+00:00,3.0,9.7,2.0,11.24,13.6,47.59359,-54.27349
2022-06-01 16:44:01+00:00,353.0,11.53,342.0,13.32,13.6,47.59359,-54.27349
2022-06-01 16:54:01+00:00,1.0,9.42,16.0,11.79,13.6,47.59359,-54.27349
2022-06-01 17:04:01+00:00,13.0,10.15,23.0,11.85,13.6,47.59359,-54.27349
2022-06-01 17:14:00+00:00,2.0,10.35,14.0,12.2,13.6,47.59359,-54.27349
2022-06-01 17:24:00+00:00,9.0,12.03,17.0,13.29,13.6,47.59359,-54.27349
2022-06-01 17:34:00+00:00,2.0,9.59,17.0,11.39,13.6,47.59359,-54.27349
2022-06-01 17:44:00+00:00,2.0,11.46,18.0,12.73,13.6,47.59359,-54.27349
2022-06-01 17:54:00+00:00,2.0,10.72,14.0,12.65,13.6,47.59359,-54.27349
2022-06-01 18:04:00+00:00,9.0,11.87,19.0,13.82,13.6,47.59359,-54.27349
2022-06-01 19:14:00+00:00,346.0,10.7,334.0,12.62,13.68,47.59359,-54.27349
2022-06-01 19:24:00+00:00,353.0,10.45,333.0,11.69,13.68,47.59359,-54.27349
2022-06-01 19:34:00+00:00,358.0,9.87,334.0,11.85,13.68,47.59359,-54.27349
2022-06-01 19:44:00+00:00,340.0,9.34,325.0,11.5,13.68,47.59359,-54.27349
2022-06-01 19:54:00+00:00,336.0,9.77,331.0,11.43,13.68,47.59359,-54.27349
2022-06-01 20:04:00+00:00,346.0,9.56,332.0,11.64,13.68,47.59359,-54.27349
2022-06-01 20:14:01+00:00,351.0,8.43,330.0,10.44,13.37,47.59359,-54.27349
2022-06-01 20:24:01+00:00,343.0,10.91,338.0,12.33,13.37,47.59359,-54.27349
2022-06-01 20:34:01+00:00,8.0,9.16,27.0,11.15,13.37,47.59359,-54.27349
2022-06-01 20:44:01+00:00,3.0,10.28,5.0,12.96,13.37,47.59359,-54.27349
2022-06-01 20:54:01+00:00,1.0,9.4,337.0,11.14,13.37,47.59359,-54.27349
2022-06-01 21:04:01+00:00,359.0,10.4,0.0,11.88,13.37,47.59359,-54.27349
2022-06-01 21:14:01+00:00,353.0,11.13,337.0,12.76,13.44,47.59359,-54.27349
2022-06-01 21:24:01+00:00,354.0,13.64,339.0,15.63,13.44,47.59359,-54.27349
2022-06-01 21:34:01+00:00,354.0,11.97,342.0,14.3,13.44,47.59359,-54.27349
2022-06-01 21:44:01+00:00,351.0,11.56,336.0,14.55,13.44,47.59359,-54.27349
2022-06-01 21:54:01+00:00,336.0,13.78,341.0,16.1,13.44,47.59359,-54.27349
2022-06-01 22:04:01+00:00,332.0,11.69,334.0,13.19,13.44,47.59359,-54.27349
2022-06-01 22:14:00+00:00,334.0,12.02,332.0,13.23,13.13,47.59359,-54.27349
2022-06-01 22:24:00+00:00,336.0,9.42,326.0,11.03,13.13,47.59359,-54.27349
2022-06-01 22:34:00+00:00,333.0,11.5,334.0,12.6,13.13,47.59359,-54.27349
2022-06-01 22:44:00+00:00,330.0,11.3,332.0,12.73,13.13,47.59359,-54.27349
2022-06-01 22:54:00+00:00,332.0,11.79,332.0,12.58,13.13,47.59359,-54.27349
2022-06-01 23:04:00+00:00,326.0,9.56,324.0,10.88,13.13,47.59359,-54.27349
2022-06-01 23:14:01+00:00,330.0,10.42,334.0,12.05,12.57,47.59359,-54.27349
2022-06-01 23:24:01+00:00,323.0,9.47,324.0,10.71,12.57,47.59359,-54.27349
2022-06-01 23:34:01+00:00,324.0,9.64,327.0,10.97,12.57,47.59359,-54.27349
2022-06-01 23:44:01+00:00,329.0,9.02,327.0,11.61,12.57,47.59359,-54.27349
2022-06-01 23:54:01+00:00,328.0,10.25,327.0,11.59,12.57,47.59359,-54.27349
